[[{"header":{"parameterUnit":"m.s-1","parameterCategory":1,"la1":30.2991,"la2":30.254,"lo1":-89.0895,"lo2":-89.0444,"dy":0.0017,"dx":0.0017,"nx":28,"ny":28,"refTime":"2025-01-26T03:00:00:Z","depth":0,"parameterNumber":2,"parameterNumberName":"U-component_of_WINDS"},"data":[0,0,0,0,0,0,0,0,0,0,0,0,0,0,0,0,0,0,0,0,0,0,0,0,0,0,0,0,0,0,0,0,0,0,0,0,0,0,0,0,0,0,0,0,0,0,0,0,0,0,0,0,0,0,0,0,0,0,0.5751,0.5751,0,0.5739,0.5739,0.5739,0.5706,0.5705,0.5705,0.5704,0.5692,0.5693,0.5693,0,0,0,0,0,0,0,0,0,0,0,0,0,0.5745,0.5745,0.5751,0.5751,0.5751,0.5739,0.5739,0.5739,0.5706,0.5705,0.5704,0.5704,0.5692,0.5693,0.5693,0,0,0,0,0,0,0,0,0,0,0,0,0,0.5742,0.5745,0.5751,0.5733,0.5731,0.5739,0.5739,0.5739,0.5706,0.5705,0.5704,0.5703,0.5692,0.5693,0.5693,0.5718,0,0,0.5695,0.5695,0,0,0,0,0,0,0,0,0.5742,0.5742,0.5736,0.5734,0.5732,0.5723,0.5733,0.5732,0.5707,0.5716,0.5704,0.5703,0.5704,0.5703,0.5703,0.5718,0.5717,0.5695,0.5695,0.5696,0.5696,0,0,0,0,0,0,0,0.5742,0.5742,0.5746,0.5736,0.5733,0.5725,0.5724,0.5733,0.5716,0.5715,0.5712,0.5712,0.5702,0.5703,0.5703,0.5717,0.5695,0.5695,0.5696,0.5696,0.5752,0.5753,0,0,0,0,0,0,0.5745,0.5743,0.5747,0.5746,0.5734,0.5726,0.5725,0.5727,0.5716,0.5713,0.5712,0.571,0.5702,0.5702,0.5702,0.5731,0.5696,0.5696,0.5696,0.5751,0.5752,0.5753,0,0,0,0,0,0,0.5745,0.5746,0.5747,0.5744,0.5743,0.5728,0.5731,0.5727,0.5728,0.5714,0.5711,0.5716,0.5702,0.5701,0.5715,0.573,0.5696,0.5697,0.5749,0.5751,0.5753,0.5789,0,0,0,0,0,0,0.5745,0.5746,0.5755,0.5744,0.5744,0.576,0.5732,0.5728,0.5729,0.5726,0.5716,0.5714,0.5701,0.5714,0.5715,0.573,0.5697,0.5748,0.575,0.5752,0.5786,0.5791,0.5796,0,0,0,0,0,0.5745,0.5766,0.5756,0.5756,0.5755,0.5761,0.576,0.5745,0.573,0.5739,0.5731,0.5714,0.5728,0.5716,0.5717,0.5732,0.5747,0.5749,0.5752,0.5784,0.579,0.5796,0,0,0,0,0,0,0.5779,0.5764,0.5753,0.577,0.5767,0.5755,0.5766,0.5752,0.5753,0.575,0.5731,0.5729,0.5745,0.574,0.5726,0.5756,0.5735,0.5738,0.5759,0.5765,0.577,0.5771,0.5698,0,0,0,0,0,0.5788,0.5794,0.5781,0.5798,0.5797,0.5782,0.5784,0.5772,0.5768,0.5766,0.5758,0.5755,0.5759,0.5761,0.5764,0.5785,0.5783,0.5796,0.5801,0.5806,0.5808,0.582,0.5826,0.5762,0.5762,0.5762,0,0,0.5808,0.58,0.5805,0.5804,0.58,0.5807,0.5781,0.5789,0.5794,0.5767,0.5779,0.5774,0.5768,0.5786,0.5793,0.5782,0.5826,0.5809,0.5812,0.5813,0.5823,0.5829,0.5834,0.5764,0.5763,0.5763,0,0,0.5847,0.5842,0.5856,0.5853,0.5847,0.5837,0.584,0.5831,0.5826,0.5837,0.5818,0.5824,0.583,0.5827,0.5827,0.5866,0.5851,0.5867,0.5894,0.5905,0.591,0.5914,0.5928,0.5934,0.587,0.587,0.587,0,0.5872,0.5882,0.5865,0.5874,0.5875,0.5851,0.5865,0.5863,0.5858,0.5859,0.5847,0.5855,0.585,0.5867,0.5876,0.5877,0.588,0.5868,0.591,0.5915,0.5918,0.5932,0.5937,0.5872,0.5872,0.5872,0.5872,0,0.5913,0.592,0.5932,0.5928,0.593,0.5942,0.5927,0.593,0.5919,0.591,0.5923,0.5916,0.5917,0.592,0.5909,0.5935,0.5929,0.5914,0.5892,0.5927,0.5939,0.5944,0.5875,0.5875,0.5874,0.5873,0,0,0.5973,0.596,0.5965,0.5963,0.5956,0.5961,0.5972,0.5973,0.5976,0.5974,0.5983,0.5989,0.5976,0.5975,0.5963,0.5973,0.6005,0.5957,0.5957,0.5967,0.6034,0.6046,0.6052,0.5995,0.5996,0.5997,0.6035,0,0.6011,0.6028,0.6014,0.6034,0.6041,0.6019,0.6028,0.6025,0.6017,0.6022,0.6013,0.6018,0.5999,0.5999,0.6008,0.5999,0.6019,0.5996,0.6003,0.6004,0.6006,0.6058,0.607,0.6107,0.604,0.604,0.6041,0,0.6056,0.6057,0.6078,0.6069,0.6071,0.608,0.608,0.6085,0.608,0.6074,0.6074,0.606,0.607,0.6049,0.6063,0.6048,0.605,0.6047,0.6048,0.6048,0.6025,0.606,0.6118,0.6123,0.6048,0.6048,0.6047,0,0.6098,0.6104,0.6117,0.6117,0.6107,0.6114,0.611,0.6104,0.6106,0.6106,0.6107,0.6109,0.6109,0.6111,0.6098,0.6083,0.6114,0.6091,0.6109,0.6109,0.6116,0.6116,0.6175,0.6117,0.6117,0.6117,0.6117,0,0.6141,0.6155,0.6136,0.6144,0.616,0.6143,0.6158,0.6152,0.6148,0.6155,0.6136,0.6143,0.6125,0.613,0.612,0.6133,0.6134,0.6129,0.6126,0.6131,0.6131,0.6132,0.6129,0.6119,0.6118,0.6118,0.6118,0,0.6191,0.6178,0.6192,0.6182,0.6179,0.6191,0.6182,0.619,0.6181,0.619,0.6192,0.6178,0.6183,0.617,0.6173,0.6166,0.6186,0.6179,0.6187,0.6185,0.6204,0.6202,0.6266,0.6273,0.6211,0.6211,0.6212,0,0.6219,0.6229,0.622,0.6224,0.6221,0.6227,0.6229,0.6213,0.6216,0.6212,0.622,0.6224,0.6226,0.6235,0.6226,0.6228,0.6221,0.6243,0.6221,0.6226,0.6222,0.6221,0.6222,0.6248,0.6248,0.6249,0.6249,0,0.6271,0.6264,0.6268,0.6269,0.6272,0.6272,0.6271,0.6275,0.6258,0.6262,0.6267,0.6269,0.6273,0.6277,0.6277,0.6273,0.6259,0.6256,0.6261,0.6266,0.627,0.6268,0.62,0.6255,0.6254,0.6254,0.6254,0.6253,0.631,0.6319,0.6314,0.6319,0.6316,0.6316,0.6323,0.6315,0.6319,0.6321,0.6311,0.6319,0.6315,0.6314,0.6312,0.6317,0.6307,0.6314,0.6315,0.6317,0.632,0.6269,0.6317,0.6317,0.6317,0.6317,0.6317,0,0.6361,0.6357,0.6362,0.6361,0.6365,0.6351,0.6349,0.6354,0.636,0.6358,0.636,0.6367,0.6371,0.6362,0.6365,0.6371,0.6364,0.6372,0.6372,0.6371,0.6329,0.6325,0.6378,0.6378,0.6377,0.6377,0.6377,0.6377,0.6388,0.6402,0.6395,0.6407,0.6403,0.641,0.6411,0.6411,0.6408,0.6416,0.642,0.6414,0.6409,0.6411,0.6415,0.6412,0.6414,0.6424,0.6419,0.638,0.6374,0.6368,0.6365,0.6425,0.6425,0.6461,0.6461,0.6462]},{"header":{"parameterUnit":"m.s-1","parameterCategory":1,"la1":30.2991,"la2":30.254,"lo1":-89.0895,"lo2":-89.0444,"dy":0.0017,"dx":0.0017,"nx":28,"ny":28,"refTime":"2025-01-26T03:00:00:Z","depth":0,"parameterNumber":3,"parameterNumberName":"V-component_of_WINDS"},"data":[0,0,0,0,0,0,0,0,0,0,0,0,0,0,0,0,0,0,0,0,0,0,0,0,0,0,0,0,0,0,0,0,0,0,0,0,0,0,0,0,0,0,0,0,0,0,0,0,0,0,0,0,0,0,0,0,0,0,2.991,2.991,0,2.9948,2.9949,2.9949,2.9898,2.9896,2.9894,2.9892,2.9936,2.9939,2.9941,0,0,0,0,0,0,0,0,0,0,0,0,0,2.9795,2.9797,2.991,2.991,2.9911,2.9948,2.9949,2.9949,2.9898,2.9896,2.9894,2.9892,2.9935,2.9938,2.9942,0,0,0,0,0,0,0,0,0,0,0,0,0,2.984,2.9798,2.991,2.989,2.9888,2.9948,2.9949,2.9949,2.9899,2.9896,2.9893,2.989,2.9934,2.9938,2.9942,3.0025,0,0,2.9955,2.9957,0,0,0,0,0,0,0,0,2.9838,2.9845,2.9892,2.9891,2.989,2.9915,2.9924,2.9975,2.9899,2.9895,2.9892,2.9889,2.9931,2.9936,2.9949,3.0027,3.0029,2.9956,2.9958,2.996,2.9962,0,0,0,0,0,0,0,2.9835,2.9843,2.9925,2.9893,2.9891,2.988,2.9883,2.9933,2.9929,2.9895,2.9891,2.9896,2.993,2.9945,2.995,3.0029,2.9956,2.996,2.9962,2.9964,3.0176,3.0179,0,0,0,0,0,0,2.9833,2.984,2.9924,2.9926,2.9856,2.9884,2.9888,2.991,2.9928,2.9928,2.9899,2.9894,2.9939,2.9945,2.9951,3.0049,2.996,2.9964,2.9967,3.0173,3.0176,3.018,0,0,0,0,0,0,2.9831,2.9841,2.9922,2.9882,2.9892,2.9889,2.9914,2.9912,2.9927,2.993,2.993,2.9915,2.9937,2.9945,3.0006,3.005,2.9966,2.997,3.0169,3.0174,3.0178,3.0245,0,0,0,0,0,0,2.9828,2.9841,2.9872,2.9883,2.9894,2.9976,2.9917,2.9915,2.9934,2.9928,2.9945,2.9946,2.9936,3.0,3.0011,3.0054,2.9974,3.0165,3.0171,3.0177,3.0239,3.0251,3.0262,0,0,0,0,0,2.9824,2.989,2.9874,2.9884,2.9932,2.9979,2.9985,2.9971,2.9938,2.9969,2.9971,2.9945,3.0043,3.0007,3.0018,3.0064,3.0163,3.017,3.0176,3.0234,3.0249,3.0261,0,0,0,0,0,0,2.9885,2.9891,2.9873,2.9944,2.9961,2.997,3.0009,2.9988,3.0016,3.0009,2.9992,2.9996,3.0061,3.0068,3.0028,3.0144,3.0097,3.0107,3.0137,3.0151,3.0163,3.016,2.9977,0,0,0,0,0,2.9907,2.9943,2.9947,3.0009,3.0018,3.0012,3.0032,3.002,3.0037,3.0045,3.0051,3.007,3.0105,3.0128,3.0161,3.0239,3.0242,3.0276,3.0287,3.0297,3.0305,3.0347,3.0362,3.0202,3.0202,3.0202,0,0,2.9952,2.996,2.9984,3.0022,3.0033,3.0072,3.0019,3.0062,3.0091,3.0052,3.0109,3.0115,3.0135,3.0205,3.0236,3.0213,3.035,3.0305,3.0313,3.0316,3.0356,3.0371,3.0384,3.0207,3.0206,3.0205,0,0,3.0055,3.0064,3.0117,3.0129,3.0147,3.0142,3.0155,3.0166,3.0168,3.0225,3.0196,3.0231,3.0291,3.0306,3.0322,3.0428,3.0406,3.044,3.05,3.0541,3.0553,3.0564,3.0603,3.0617,3.0448,3.0448,3.0448,0,3.0109,3.0166,3.0147,3.0192,3.021,3.0174,3.0227,3.0241,3.0269,3.0282,3.0255,3.0329,3.034,3.0413,3.0439,3.0453,3.0467,3.0438,3.0553,3.0564,3.0574,3.061,3.0625,3.0452,3.0452,3.0451,3.0451,0,3.0232,3.0271,3.0312,3.0338,3.036,3.041,3.0399,3.0424,3.0409,3.0408,3.0466,3.0478,3.0511,3.0528,3.0515,3.0599,3.0584,3.0555,3.0508,3.0593,3.0627,3.0641,3.0458,3.0457,3.0455,3.0454,0,0,3.0376,3.0389,3.0405,3.0416,3.0432,3.0463,3.051,3.0542,3.0563,3.0583,3.0623,3.0674,3.0647,3.0665,3.0653,3.0689,3.0773,3.0656,3.0656,3.0678,3.0867,3.0889,3.0905,3.0757,3.076,3.0762,3.0865,0,3.0478,3.0559,3.0543,3.0623,3.0659,3.0625,3.0666,3.0681,3.0681,3.0712,3.0711,3.0748,3.071,3.072,3.0754,3.0756,3.0811,3.0748,3.0795,3.0797,3.0792,3.0923,3.0946,3.1043,3.0878,3.088,3.0882,0,3.0609,3.0632,3.0715,3.0724,3.0739,3.0776,3.0804,3.0834,3.085,3.0847,3.0866,3.0847,3.0895,3.0846,3.0912,3.087,3.0888,3.0892,3.0895,3.09,3.0846,3.0932,3.1074,3.1089,3.0903,3.0901,3.09,0,3.0706,3.0758,3.0814,3.0824,3.0837,3.0864,3.0871,3.0883,3.0903,3.0927,3.094,3.097,3.0986,3.101,3.1,3.0965,3.1068,3.1018,3.1068,3.1068,3.1092,3.1091,3.124,3.1103,3.1103,3.1102,3.1102,0,3.0822,3.0875,3.0857,3.0892,3.095,3.0931,3.0989,3.0991,3.1003,3.1038,3.101,3.1044,3.1028,3.1061,3.1053,3.1109,3.1117,3.1116,3.1114,3.112,3.112,3.1132,3.1126,3.1106,3.1105,3.1104,3.1104,0,3.0941,3.0931,3.099,3.0996,3.0999,3.1041,3.1047,3.108,3.1076,3.1121,3.113,3.1125,3.1163,3.1154,3.1195,3.119,3.1261,3.1249,3.1255,3.1253,3.1303,3.1299,3.1466,3.1487,3.1335,3.1337,3.1338,0,3.1016,3.1055,3.1065,3.1086,3.1094,3.1128,3.1147,3.1131,3.1152,3.1172,3.1203,3.1237,3.1264,3.1325,3.1325,3.1357,3.1346,3.1403,3.1351,3.1355,3.1348,3.1346,3.135,3.1414,3.1415,3.1417,3.1418,0,3.1151,3.1144,3.1173,3.1199,3.1223,3.1243,3.1261,3.128,3.1265,3.129,3.1327,3.1347,3.1388,3.1423,3.1451,3.1459,3.1437,3.1434,3.1447,3.1454,3.1456,3.1456,3.1284,3.1431,3.1429,3.1428,3.1428,3.1427,3.1251,3.1284,3.1296,3.1328,3.1339,3.1357,3.1387,3.1387,3.1417,3.1448,3.1436,3.1478,3.1493,3.1528,3.1539,3.1573,3.1552,3.1571,3.1576,3.1581,3.1587,3.1449,3.1578,3.1577,3.1577,3.1577,3.1576,0,3.1385,3.139,3.142,3.1446,3.1471,3.1445,3.1464,3.1487,3.1524,3.1539,3.1565,3.1607,3.164,3.1643,3.1674,3.17,3.1691,3.1709,3.1708,3.171,3.1604,3.159,3.1716,3.1716,3.1716,3.1716,3.1716,3.1716,3.1458,3.1512,3.1507,3.1566,3.1571,3.1611,3.1624,3.164,3.1651,3.1699,3.1726,3.1727,3.1737,3.1769,3.1798,3.1798,3.1811,3.1834,3.183,3.1731,3.1718,3.1704,3.1691,3.1837,3.1837,3.1933,3.1934,3.1935]}]]